weather.gov     
National Weather Service

Terminal Aerodrome Forecast
NWS Homepage
This page is being discontinued on March 12, 2014.
The same data is available at this site. Please update your bookmarks.
Thank you, and we apologize for the inconvenience.
Please send an email to SR-SRH.Webmaster@noaa.gov with any concerns.


Current Version
Previous Version:    01  02  03  04  05  06  07  08  09  10  11  12  13  14  15  16  17  18  19  
[Printable]
873
FTUS45 KGJT 302334
TAFVEL
TAF
KVEL 302334Z 3100/3124 00000KT P6SM SKC
     FM310200 30005KT P6SM FEW250
     FM311400 VRB03KT P6SM BKN250
     FM311900 24006KT P6SM BKN250=


873
FTUS45 KGJT 302334
TAFVEL
TAF
KVEL 302334Z 3100/3124 00000KT P6SM SKC
     FM310200 30005KT P6SM FEW250
     FM311400 VRB03KT P6SM BKN250
     FM311900 24006KT P6SM BKN250=




U.S. Dept. of Commerce
NOAA National Weather Service
1325 East West Highway
Silver Spring, MD 20910
E-mail: w-nws.webmaster@noaa.gov
Page last modified: May 16, 2007
NATIONAL WEATHER SERVICE: for Safety, for Work, for Fun - FOR LIFE